User: anonymous   Login
Location: Amon Carter Post Office
(32.8281°N, 97.0484°W)
Time: 03:54:26
(UTC+00:00)
Language:

CZ-4B R/B - Orbit

View from above orbital plane
View from above orbital plane
View from above satellite
View from above satellite

Ground track
Ground track

The orbit data is extracted from the following two-line orbital elements,

1 29093U 06015B   22139.54070554  .00037583  00000-0  49244-3 0  9994
2 29093  97.6046 357.1530 0038806 290.4680  69.2410 15.57569556895058
Epoch (UTC): 19 May 2022 12:58:36
Eccentricity: 0.0038806
inclination: 97.6046°
perigee height: 368 km
apogee height: 421 km
right ascension of ascending node: 357.1530°
argument of perigee: 290.4680°
revolutions per day: 15.57569556
mean anomaly at epoch: 69.2410°
orbit number at epoch: 89505

The dashed part of the orbit path shows where the satellite is in the earth's shadow,  

DLR